Tracking 31027 objects as of 19-Jul-2025
HD Live streaming from Space Station
objects crossing your sky now

SL-12 R/B(2)

Track SL-12 R/B(2) now!


NORAD ID: 23429
Int'l Code: 1994-082D
Perigee: 35,526.2 km
Apogee: 35,772.1 km
Inclination: 14.6 °
Period: 1,428.7 minutes
Semi major axis: 42020 km
RCS: 2.5118 m2 (large)
Launch date: December 16, 1994
Source: Commonwealth of Independent States (former USSR) (CIS)
Launch site: TYURATAM MISSILE AND SPACE COMPLEX (TTMTR)

Note: This is a ROCKET BODY
Your satellite tracking list
FLOCK 3P 17
Track 1 satellite(s)




NASA's NSSDC Master Catalog

Two Line Element Set (TLE):
1 23429U 94082D   25199.23100064 -.00000075  00000-0  00000-0 0  9998
2 23429  14.6096 356.7010 0029254 133.0263 231.8539  1.00789802112538
Source of the keplerian elements: AFSPC